This demonstration page uses our WeatherBlox Daily Observations layout. Learn more.

39.29038, -76.61219

Hourly Observations for December 30, 2017

Temp ( °F °C ) Dew Point ( °F °C ) Humidity (%) Winds ( mph kmh ) Pressure ( in mb ) Visibility ( mi km ) Precip ( " mm )
12:54 am 00:54 undefined 23 -5 7 -13.9 50 50 undefined N/A 30.24 1024 N/A 0 0
1:54 am 01:54 undefined 24 -4.4 8 -13.3 50 50 undefined N/A 30.21 1023 N/A 0 0
2:54 am 02:54 undefined 23 -5 13 -10.6 65 65 undefined N/A 30.21 1023 N/A 0 0
3:54 am 03:54 undefined 22 -5.6 17 -8.3 82 82 undefined N/A 30.18 1022 N/A 0 0
4:54 am 04:54 undefined 22 -5.6 19 -7.2 89 89 undefined N/A 30.18 1022 N/A 0.02 0.508
5:54 am 05:54 undefined 22 -5.6 18 -7.8 85 85 undefined N/A 30.15 1021 N/A 0.01 0.254
6:54 am 06:54 undefined 23 -5 17 -8.3 78 78 undefined N/A 30.15 1021 N/A 0 0
7:54 am 07:54 undefined 23 -5 18 -7.8 81 81 undefined N/A 30.12 1020 N/A 0 0
8:54 am 08:54 undefined 23 -5 18 -7.8 81 81 undefined N/A 30.12 1020 N/A 0 0
9:54 am 09:54 undefined 24 -4.4 19 -7.2 81 81 undefined N/A 30.09 1019 N/A 0 0
10:54 am 10:54 undefined 26 -3.3 20 -6.7 78 78 undefined N/A 30.06 1018 N/A 0 0
11:54 am 11:54 undefined 30 -1.1 20 -6.7 66 66 undefined N/A 30 1016 N/A 0 0
12:54 pm 12:54 undefined 32 0 19 -7.2 59 59 undefined N/A 29.94 1014 N/A 0 0
1:54 pm 13:54 undefined 34 1.1 19 -7.2 54 54 undefined N/A 29.91 1013 N/A 0 0
2:54 pm 14:54 undefined 34 1.1 18 -7.8 52 52 undefined N/A 29.91 1013 N/A 0 0
3:54 pm 15:54 undefined 33 0.6 19 -7.2 56 56 undefined N/A 29.94 1014 N/A 0 0
4:54 pm 16:54 undefined 31 -0.6 23 -5 72 72 undefined N/A 29.97 1015 N/A 0 0
5:54 pm 17:54 undefined 30 -1.1 16 -8.9 56 56 undefined N/A 30 1016 N/A 0 0
6:54 pm 18:54 undefined 28 -2.2 8 -13.3 43 43 undefined N/A 30.06 1018 N/A 0 0
7:54 pm 19:54 undefined 27 -2.8 6 -14.4 41 41 undefined N/A 30.09 1019 N/A 0 0
8:54 pm 20:54 undefined 27 -2.8 7 -13.9 43 43 undefined N/A 30.12 1020 N/A 0 0
9:54 pm 21:54 undefined 25 -3.9 5 -15 42 42 undefined N/A 30.15 1021 N/A 0 0
10:54 pm 22:54 undefined 25 -3.9 4 -15.6 40 40 undefined N/A 30.15 1021 N/A 0 0
11:54 pm 23:54 undefined 23 -5 5 -15 46 46 undefined N/A 30.18 1022 N/A 0 0

Powered by AerisWeather